Tracking 30922 objects as of 2-Jul-2025
HD Live streaming from Space Station
objects crossing your sky now

METEOR 1-26

Track METEOR 1-26 now!
10-day predictions
METEOR 1-26 is classified as:


NORAD ID: 9481
Int'l Code: 1976-102A
Perigee: 849.0 km
Apogee: 882.1 km
Inclination: 81.2 °
Period: 102.1 minutes
Semi major axis: 7236 km
RCS: 4.3206 m2 (large)
Launch date: October 15, 1976
Source: Commonwealth of Independent States (former USSR) (CIS)
Launch site: PLESETSK MISSILE AND SPACE COMPLEX (PKMTR)
Your satellite tracking list
Your tracking list is empty




NASA's NSSDC Master Catalog

Two Line Element Set (TLE):
1 09481U 76102A   25182.85477682  .00000031  00000-0  10601-4 0  9999
2 09481  81.2174  26.5961 0022879 177.6633 182.4650 14.10275634504296
Source of the keplerian elements: AFSPC